This is the latest recevied weather packets stored in our database for station/object KN6CRX-10. If no packets are shown the sender has not sent any weather packets the latest 10 day(s).
| Time | Temp. | Humidity | Pressure | Rain* | Wind** | Luminosity | Snow |
|---|---|---|---|---|---|---|---|
| 1788146167 | 17.78° C | 33% | 1019.2 hPa | 0 mm | - | 0 W/m² | - |
| 1788145865 | 18.33° C | 32% | 1019.1 hPa | 0 mm | - | 0 W/m² | - |
| 1788145565 | 18.33° C | 30% | 1019.1 hPa | 0 mm | - | 0 W/m² | - |
| 1788145264 | 18.89° C | 29% | 1018.9 hPa | 0 mm | - | 0 W/m² | - |
| 1788144963 | 18.89° C | 28% | 1018.7 hPa | 0 mm | - | 0 W/m² | - |
| 1788144658 | 19.44° C | 27% | 1018.9 hPa | 0 mm | - | 0 W/m² | - |
| 1788144354 | 19.44° C | 27% | 1018.6 hPa | 0 mm | - | 0 W/m² | - |
| 1788144052 | 20° C | 27% | 1018.5 hPa | 0 mm | - | 0 W/m² | - |
| 1788143751 | 20° C | 26% | 1018.6 hPa | 0 mm | - | 0 W/m² | - |
| 1788143451 | 20.56° C | 26% | 1018.5 hPa | 0 mm | - | 0 W/m² | - |
| 1788143145 | 20.56° C | 26% | 1018.5 hPa | 0 mm | - | 0 W/m² | - |
| 1788142841 | 20.56° C | 26% | 1018.4 hPa | 0 mm | - | 0 W/m² | - |
| 1788142539 | 20° C | 26% | 1018.5 hPa | 0 mm | - | 1 W/m² | - |
| 1788142236 | 20° C | 27% | 1018.3 hPa | 0 mm | - | 2 W/m² | - |
| 1788141931 | 20.56° C | 28% | 1018.4 hPa | 0 mm | - | 3 W/m² | - |
| 1788141625 | 20.56° C | 28% | 1018.3 hPa | 0 mm | - | 5 W/m² | - |
| 1788141321 | 20.56° C | 28% | 1018.4 hPa | 0 mm | - | 8 W/m² | - |
| 1788141016 | 21.11° C | 29% | 1018.3 hPa | 0 mm | - | 11 W/m² | - |
| 1788140710 | 21.67° C | 29% | 1018.4 hPa | 0 mm | - | 14 W/m² | - |
| 1788140407 | 22.22° C | 27% | 1018 hPa | 0 mm | - | 18 W/m² | - |
| 1788140103 | 22.78° C | 28% | 1018.3 hPa | 0 mm | - | 22 W/m² | - |
| 1788139801 | 23.33° C | 26% | 1018.2 hPa | 0 mm | - | 29 W/m² | - |
| 1788139497 | 23.33° C | 25% | 1018.3 hPa | 0 mm | - | 37 W/m² | - |
| 1788139196 | 23.33° C | 26% | 1018.2 hPa | 0 mm | - | 46 W/m² | - |
| 1788138891 | 23.89° C | 26% | 1018.5 hPa | 0 mm | - | 45 W/m² | - |
* Rain latest hour (hover to see other rain measurements)
** Current wind speed in m/s (hover to see current wind gust speed)